Home   Weather   Porto Velho   Past weeks

Flag for Brazil Past Weather in Porto Velho, Rondônia, Brazil — Yesterday and Last 2 Weeks

Now
88 °F

Partly sunny.


Feels Like: 94 °F
Forecast: 72 / 88 °F
Wind: 12 mph from South

Location: Porto Velho Aeroporto

Current Time: Aug 30, 2016 at 1:29:10 PM

Latest Report: Aug 30, 2016 at 1:00 PM


Visibility: N/A

Pressure: 29.89 "Hg

Humidity: 59%

Dew Point: 72 °F

Location of Porto VelhoLocation

Past Weather in Porto Velho — Graph

°F

Porto Velho Temperature Yesterday

Maximum temperature yesterday: 93 °F (at 3:00 PM)
Minimum temperature yesterday: 73 °F (at 2:00 AM)
Average temperature yesterday: 81 °F

High & Low Weather Summary for the Past Weeks

 TemperatureHumidityPressure
High99 °F (Aug 18, 3:00 PM)94% (Aug 16, 3:00 AM)30.12 "Hg (Aug 16, 3:00 AM)
Low63 °F (Aug 23, 6:00 AM)22% (Aug 23, 1:00 PM)29.71 "Hg (Aug 18, 4:00 PM)
Average80 °F69%29.88 "Hg
* Reported Aug 15 12:00 PM — Aug 30 12:00 PM, Porto Velho, Weather by CustomWeather, © 2016

Note: Actual official high and low records may vary slightly from our data, if they occured in-between our weather recording intervals... More about our weather records

Advertising

Porto Velho Weather History for the Previous 24 Hours

Scroll right to see more
 ConditionsComfort  
Time TempWeatherWind HumidityBarometerVisibility
12:00 PM
Tue, Aug 30
88 °FBroken clouds.8 mph62%29.92 "HgN/A
11:00 AM86 °FScattered clouds.12 mph62%29.95 "HgN/A
10:00 AM84 °FPassing clouds.2 mph62%29.95 "HgN/A
9:00 AM81 °FScattered clouds.13 mph70%29.95 "HgN/A
8:00 AM79 °FPartly sunny.2 mph84%29.92 "Hg5 mi
7:00 AM75 °FPartly sunny.No wind89%29.89 "HgN/A
6:00 AM75 °FClear.2 mph83%29.86 "Hg10 mi
5:00 AM75 °FClear.No wind83%29.86 "Hg10 mi
4:00 AM75 °FClear.No wind83%29.83 "Hg10 mi
3:00 AM75 °FClear.No wind83%29.83 "Hg10 mi
2:00 AM73 °FClear.No wind89%29.86 "Hg10 mi
1:00 AM77 °FClear.No wind79%29.86 "Hg10 mi
12:00 AM77 °FClear.No wind74%29.89 "Hg10 mi
11:00 PM
Mon, Aug 29
75 °FPassing clouds.No wind83%29.89 "HgN/A
10:00 PM79 °FPassing clouds.No wind74%29.86 "HgN/A
9:00 PM79 °FPassing clouds.2 mph79%29.83 "HgN/A
8:00 PM82 °FPassing clouds.1 mph66%29.83 "HgN/A
7:00 PM81 °FPassing clouds.5 mph74%29.80 "HgN/A
6:00 PM84 °FScattered clouds.3 mph62%29.77 "HgN/A
5:00 PM88 °FScattered showers. Scattered clouds.2 mph55%29.77 "HgN/A
4:00 PM91 °FScattered clouds.3 mph44%29.77 "HgN/A
3:00 PM93 °FScattered clouds.5 mph41%29.80 "HgN/A
2:00 PM91 °FScattered clouds.7 mph44%29.83 "HgN/A
1:00 PM91 °FScattered clouds.3 mph46%29.89 "HgN/A
Weather by CustomWeather, © 2016

See weather overviewHow to use our weather pages